Volver al catálogo

STARLINK-34336

ActivoComunicacionesVLEO
NORAD 64462·PAYLOAD·🇺🇸 United States

Lanzado Jun 18, 2025 desde Cape Canaveral Space Force Station

Loading…

Próximos Pases (próximas 24 horas)

TLE

ActualizadoSource: CelesTrak SupGP

Época: Sep 14, 2026, 20:51 UTC

1 64462C 25130AA  26257.86923611  .00014072  00000+0  45266-3 0  2577
2 64462  53.1592 290.9047 0001213  83.4420 182.9213 15.31685745    10

Sigue STARLINK-34336 en tiempo real con AllMySat

Download on the App Store